K6MBY Weather Reports


Display with metric or nautical units.
time (UTC)temp
F
wind
direction
speed
MPH
gust
MPH
rain 1hr
in
rain 24hr
in
rain mn
in
humidity
%
barometer
mb
20260504202238 64 263 3.0 3.0 0.00 0.00 0.00 62 1014.3
20260504201735 63 261 3.0 6.0 0.00 0.00 0.00 63 1014.4
20260504201232 64 258 2.0 6.0 0.00 0.00 0.00 64 1014.3
20260504200730 63 293 3.0 7.0 0.00 0.00 0.00 65 1014.3
20260504200226 64 245 3.0 6.0 0.00 0.00 0.00 65 1014.4
20260504195722 63 243 2.0 6.0 0.00 0.00 0.00 64 1014.5
20260504195219 63 306 4.0 8.0 0.00 0.00 0.00 60 1014.5
20260504194716 64 269 2.0 5.0 0.00 0.00 0.00 59 1014.3
20260504194212 65 335 5.0 7.0 0.00 0.00 0.00 60 1014.5
20260504193708 64 312 4.0 6.0 0.00 0.00 0.00 61 1014.5
20260504193206 64 250 3.0 7.0 0.00 0.00 0.00 61 1014.4
20260504192704 64 310 5.0 6.0 0.00 0.00 0.00 58 1014.3
20260504192202 64 296 4.0 7.0 0.00 0.00 0.00 62 1014.5
20260504191700 68 305 6.0 10.0 0.00 0.00 0.00 58 1014.4
20260504191156 68 346 6.0 8.0 0.00 0.00 0.00 57 1014.2
20260504190651 69 354 8.0 10.0 0.00 0.00 0.00 54 1014.2
20260504190149 71 16 7.0 8.0 0.00 0.00 0.00 52 1014.2
20260504185645 71 326 6.0 7.0 0.00 0.00 0.00 52 1014.2
20260504185142 71 349 4.0 7.0 0.00 0.00 0.00 55 1014.2
20260504184638 69 20 6.0 7.0 0.00 0.00 0.00 54 1014.0
20260504184133 69 14 4.0 6.0 0.00 0.00 0.00 54 1014.1
20260504183630 69 10 5.0 6.0 0.00 0.00 0.00 57 1014.1
20260504183128 69 354 6.0 8.0 0.00 0.00 0.00 57 1014.4
20260504182626 68 17 5.0 8.0 0.00 0.00 0.00 56 1014.4
20260504182123 68 0 5.0 7.0 0.00 0.00 0.00 55 1014.1
20260504181620 67 359 5.0 8.0 0.00 0.00 0.00 56 1014.5
20260504181117 68 350 6.0 7.0 0.00 0.00 0.00 55 1014.5
20260504180617 68 19 6.0 7.0 0.00 0.00 0.00 55 1014.5
20260504180115 67 352 7.0 8.0 0.00 0.00 0.00 56 1014.3
20260504175612 68 28 7.0 8.0 0.00 0.00 0.00 55 1014.6
20260504175108 68 331 3.0 5.0 0.00 0.00 0.00 56 1014.4
20260504174607 68 299 4.0 7.0 0.00 0.00 0.00 57 1014.2
20260504174103 67 15 5.0 7.0 0.00 0.00 0.00 56 1014.5
20260504173600 67 359 5.0 8.0 0.00 0.00 0.00 57 1014.4
20260504173058 66 7 5.0 7.0 0.00 0.00 0.00 58 1014.5
20260504172553 66 339 7.0 9.0 0.00 0.00 0.00 57 1014.4
20260504172050 66 349 5.0 9.0 0.00 0.00 0.00 57 1014.4
20260504171547 67 22 8.0 8.0 0.00 0.00 0.00 57 1014.5
20260504171044 67 1 4.0 7.0 0.00 0.00 0.00 57 1014.5
20260504170539 66 354 5.0 6.0 0.00 0.00 0.00 56 1014.6
20260504150924 69 326 2.0 3.0 0.00 0.00 0.00 47 1013.9
20260504150420 69 193 0.0 2.0 0.00 0.00 0.00 46 1013.9
20260504140847 63 248 2.0 5.0 0.00 0.00 0.00 51 1013.5
20260504140343 62 240 3.0 3.0 0.00 0.00 0.00 52 1013.5
20260504130812 59 224 5.0 6.0 0.00 0.00 0.00 55 1013.1
20260504130308 59 217 5.0 7.0 0.00 0.00 0.00 55 1013.2
20260504120231 57 218 3.0 5.0 0.00 0.00 0.00 68 1013.0
20260504110659 57 196 2.0 2.0 0.00 0.00 0.00 69 1012.9
20260504110155 56 195 2.0 2.0 0.00 0.00 0.00 69 1013.0
20260504100119 58 192 1.0 2.0 0.00 0.00 0.00 59 1012.8
20260504081512 64 227 6.0 7.0 0.00 0.00 0.00 44 1012.6
20260504081008 65 229 6.0 8.0 0.00 0.00 0.00 45 1012.6
20260504080504 64 238 7.0 8.0 0.00 0.00 0.00 44 1012.6
20260504050306 66 233 3.0 3.0 0.00 0.00 0.00 47 1013.3
20260504045803 67 269 1.0 2.0 0.00 0.00 0.00 44 1013.4
20260504045304 68 268 1.0 2.0 0.00 0.00 0.00 41 1013.2
20260504044800 69 240 1.0 2.0 0.00 0.00 0.00 41 1013.3
20260504044257 69 232 4.0 5.0 0.00 0.00 0.00 41 1013.3
20260504043754 69 223 2.0 3.0 0.00 0.00 0.00 41 1013.2
20260504043251 68 212 3.0 3.0 0.00 0.00 0.00 42 1013.2
20260504042749 68 210 2.0 2.0 0.00 0.00 0.00 42 1013.1
20260504042245 69 192 2.0 2.0 0.00 0.00 0.00 38 1013.2
20260504041741 69 184 1.0 1.0 0.00 0.00 0.00 39 1013.2
20260504041237 71 136 2.0 5.0 0.00 0.00 0.00 37 1013.1
20260504040734 74 265 1.0 1.0 0.00 0.00 0.00 30 1013.1
20260504040232 74 266 1.0 1.0 0.00 0.00 0.00 30 1013.0
20260504035727 74 265 0.0 1.0 0.00 0.00 0.00 29 1013.1
20260504035225 74 265 0.0 1.0 0.00 0.00 0.00 29 1012.9
20260504034722 74 265 0.0 1.0 0.00 0.00 0.00 29 1012.9
20260504034219 74 265 0.0 1.0 0.00 0.00 0.00 29 1013.0
20260504033717 74 265 0.0 1.0 0.00 0.00 0.00 29 1012.8
20260504033214 74 265 0.0 1.0 0.00 0.00 0.00 29 1012.8
20260504032711 75 264 0.0 1.0 0.00 0.00 0.00 29 1012.9
20260504032208 75 262 0.0 1.0 0.00 0.00 0.00 29 1012.9
20260504031705 75 280 1.0 1.0 0.00 0.00 0.00 29 1012.9
20260504031201 75 272 1.0 1.0 0.00 0.00 0.00 30 1013.0
20260504030658 75 280 1.0 2.0 0.00 0.00 0.00 30 1013.1
20260504030155 75 275 1.0 2.0 0.00 0.00 0.00 30 1013.0
20260504025651 75 331 3.0 5.0 0.00 0.00 0.00 31 1012.9
20260504025148 75 263 1.0 1.0 0.00 0.00 0.00 29 1013.1
20260504024646 75 263 1.0 1.0 0.00 0.00 0.00 30 1013.0
20260504024142 76 240 1.0 2.0 0.00 0.00 0.00 33 1013.0
20260504023639 76 247 1.0 3.0 0.00 0.00 0.00 32 1013.0
20260504023135 76 224 3.0 5.0 0.00 0.00 0.00 31 1013.1
20260504022631 77 247 3.0 5.0 0.00 0.00 0.00 29 1013.2
20260504022127 77 254 1.0 5.0 0.00 0.00 0.00 31 1013.3
20260504021626 77 251 1.0 5.0 0.00 0.00 0.00 29 1013.2
20260504021121 77 246 2.0 3.0 0.00 0.00 0.00 30 1013.4
20260504020619 77 238 3.0 5.0 0.00 0.00 0.00 31 1013.4
20260504020115 78 248 2.0 2.0 0.00 0.00 0.00 31 1013.5
20260504015611 78 252 2.0 5.0 0.00 0.00 0.00 31 1013.4
20260504015107 79 286 2.0 2.0 0.00 0.00 0.00 29 1013.5
20260504014604 79 255 1.0 2.0 0.00 0.00 0.00 30 1013.7
20260504014101 78 253 1.0 2.0 0.00 0.00 0.00 29 1013.7
20260504013558 78 248 2.0 3.0 0.00 0.00 0.00 30 1013.5
20260504013055 78 245 3.0 5.0 0.00 0.00 0.00 31 1013.7
20260504012553 77 233 4.0 6.0 0.00 0.00 0.00 28 1013.8
20260504012050 78 235 5.0 6.0 0.00 0.00 0.00 29 1013.7
20260504011547 79 239 2.0 6.0 0.00 0.00 0.00 30 1013.7
20260504011043 78 273 1.0 2.0 0.00 0.00 0.00 30 1013.9
20260504010539 78 291 2.0 3.0 0.00 0.00 0.00 32 1013.9
20260504010035 77 1 3.0 3.0 0.00 0.00 0.00 33 1013.9
20260504005532 77 289 1.0 2.0 0.00 0.00 0.00 34 1014.1
20260504005030 77 21 2.0 3.0 0.00 0.00 0.00 35 1014.1
20260504004527 76 255 1.0 5.0 0.00 0.00 0.00 34 1014.2
20260504004024 76 330 4.0 6.0 0.00 0.00 0.00 35 1014.2
20260504003520 76 318 3.0 5.0 0.00 0.00 0.00 35 1014.4
20260504003017 77 335 4.0 5.0 0.00 0.00 0.00 33 1014.5
20260504002514 76 352 3.0 5.0 0.00 0.00 0.00 33 1014.5
20260504002012 76 342 4.0 6.0 0.00 0.00 0.00 37 1014.5
20260504001509 76 345 3.0 6.0 0.00 0.00 0.00 35 1014.6
20260504001005 76 330 5.0 7.0 0.00 0.00 0.00 35 1014.7
20260504000503 76 332 4.0 6.0 0.00 0.00 0.00 34 1014.5
20260503235959 76 347 4.0 7.0 0.00 0.00 0.00 36 1014.6
20260503235458 76 1 6.0 7.0 0.00 0.00 0.00 35 1014.6
20260503234954 76 321 4.0 6.0 0.00 0.00 0.00 35 1014.6
20260503234452 76 350 3.0 5.0 0.00 0.00 0.00 36 1014.7
20260503233950 76 1 4.0 6.0 0.00 0.00 0.00 38 1014.8
20260503233446 76 313 3.0 6.0 0.00 0.00 0.00 36 1014.7
20260503232942 76 344 4.0 5.0 0.00 0.00 0.00 37 1015.1
20260503232439 75 0 4.0 6.0 0.00 0.00 0.00 37 1015.0
20260503231937 75 321 5.0 6.0 0.00 0.00 0.00 37 1015.2
20260503231435 75 336 5.0 7.0 0.00 0.00 0.00 37 1015.1
20260503230931 75 19 4.0 7.0 0.00 0.00 0.00 37 1015.1
20260503230427 75 350 5.0 7.0 0.00 0.00 0.00 35 1015.2
20260503225925 75 348 4.0 5.0 0.00 0.00 0.00 36 1015.2
20260503225422 75 6 3.0 8.0 0.00 0.00 0.00 38 1015.4
20260503224917 75 358 5.0 7.0 0.00 0.00 0.00 34 1015.3
20260503224415 75 340 3.0 5.0 0.00 0.00 0.00 41 1015.4
20260503223912 74 347 3.0 5.0 0.00 0.00 0.00 40 1015.6
20260503223410 73 308 3.0 5.0 0.00 0.00 0.00 47 1015.7
20260503222910 71 333 3.0 5.0 0.00 0.00 0.00 48 1015.7
20260503222409 72 10 3.0 6.0 0.00 0.00 0.00 49 1015.8
20260503221907 72 359 5.0 6.0 0.00 0.00 0.00 50 1015.9
20260503221405 73 326 3.0 3.0 0.00 0.00 0.00 48 1016.0
20260503220901 72 9 2.0 3.0 0.00 0.00 0.00 48 1015.9
20260503220358 71 332 4.0 5.0 0.00 0.00 0.00 49 1016.1
20260503215855 71 20 3.0 6.0 0.00 0.00 0.00 49 1016.2
20260503215352 71 4 5.0 6.0 0.00 0.00 0.00 48 1016.2
20260503214849 71 10 4.0 5.0 0.00 0.00 0.00 49 1016.3
20260503214347 71 3 6.0 7.0 0.00 0.00 0.00 49 1016.3
20260503213844 71 5 5.0 7.0 0.00 0.00 0.00 50 1016.4
20260503213342 70 12 5.0 8.0 0.00 0.00 0.00 51 1016.5
20260503212838 70 6 9.0 10.0 0.00 0.00 0.00 51 1016.5
20260503212336 70 13 10.0 11.0 0.00 0.00 0.00 50 1016.5
20260503211833 69 5 10.0 13.0 0.00 0.00 0.00 52 1016.5
20260503211330 69 40 7.0 9.0 0.00 0.00 0.00 50 1016.6
20260503210825 69 0 7.0 10.0 0.00 0.00 0.00 55 1016.6
20260503210323 69 13 8.0 10.0 0.00 0.00 0.00 55 1016.6
20260503205817 69 19 8.0 10.0 0.00 0.00 0.00 54 1016.8
20260503205314 69 18 10.0 11.0 0.00 0.00 0.00 50 1016.6
20260503204811 69 7 9.0 11.0 0.00 0.00 0.00 52 1016.9
20260503204309 70 22 10.0 13.0 0.00 0.00 0.00 49 1016.8
20260503203806 70 5 8.0 10.0 0.00 0.00 0.00 52 1016.8
20260503203303 69 4 7.0 11.0 0.00 0.00 0.00 50 1016.8
20260503202800 69 0 6.0 9.0 0.00 0.00 0.00 55 1016.7